Погода в Гыде

Россия / Ямало-Ненецкий автономный округ     70°53′36″N   78°29′06″E
темп.,
°C
ветер,
м/с
пор.,
м/с
влажн.,
%
обл.,
%
осадки,
мм/ч
давл.,
гПа
погр.,
м
2 марта, вт
вт223:00−29ююв9149292 0.0 1014317
02:00−29юв9159266 0.0 1013309
05:00−30юв9159265 0.0 1013307
08:00−29юв9159267 0.0 1013311
11:00−29юв9159165 0.0 1013319
14:00−28юв9159179 0.0 1014322
17:00−29юв9159163 0.0 1014307
20:00−30юв915890 0.0 1015301
3 марта, ср
ср323:00−30юв815890 0.0 1015299
02:00−31вюв9159035 0.0 1014302
05:00−30вюв9159164 0.0 1015343
08:00−29юв91593100 0.1 1014376
11:00−27юв91591100 0.1 1014410
14:00−27юв9158998 0.0 1014421
17:00−27вюв9149098 0.1 1014397
20:00−28вюв9148893 0.0 1014378
4 марта, чт
чт423:00−28вюв9148896 0.0 1014384
02:00−28вюв91487100 0.0 1013398
05:00−27вюв91591100 0.0 1012423
08:00−26вюв91492100 0.1 1012458
11:00−25вюв91491100 0.1 1011507
14:00−24вюв91391100 0.1 1011554
17:00−24вюв81391100 0.1 1011553
20:00−24вюв81293100 0.1 1010496
5 марта, пт
пт523:00−21вюв71294100 0.3 1009531
02:00−21вюв71293100 0.1 1008464
05:00−21вюв71195100 0.1 1008410
08:00−21вюв71194100 0.1 1008408
11:00−21вюв61094100 0.2 1007386
14:00−20вюв61094100 0.1 1007399
17:00−21в51095100 0.1 1007260
20:00−21в599699 0.1 1007287
6 марта, сб
сб623:00−21в6996100 0.1 1006267
02:00−23в699695 0.1 1006225
05:00−23в699695 0.1 1005255
08:00−24в699695 0.1 1005216
11:00−24всв689696 0.1 1004238
14:00−25всв589493 0.1 1004241
17:00−28всв589690 0.1 1004159
20:00−31всв479874 0.0 1004102